TimeEST,TemperatureF,Dew PointF,Humidity,Sea Level PressureIn,VisibilityMPH,Wind Direction,Wind SpeedMPH,Gust SpeedMPH,PrecipitationIn,Events,Conditions,WindDirDegrees,DateUTC
12:51 AM,62.1,59.0,90,30.24,3.0,WNW,4.6,-,0.07,Rain,Rain,300,2013-11-16 05:51:00
1:04 AM,60.8,59.0,94,30.24,1.8,Variable,5.8,-,0.08,Rain,Heavy Rain,0,2013-11-16 06:04:00
1:15 AM,60.8,60.8,100,30.25,2.5,WSW,6.9,-,0.15,Rain,Heavy Rain,250,2013-11-16 06:15:00
1:25 AM,60.8,59.0,94,30.25,3.0,West,6.9,-,0.20,Rain,Heavy Rain,270,2013-11-16 06:25:00
1:27 AM,60.8,57.2,88,30.25,2.5,West,8.1,-,0.21,Rain,Heavy Rain,280,2013-11-16 06:27:00
1:51 AM,60.1,59.0,96,30.25,3.0,WNW,5.8,-,0.31,Rain,Rain,300,2013-11-16 06:51:00
2:51 AM,61.0,60.1,97,30.23,8.0,ENE,3.5,-,0.12,Rain,Light Rain,70,2013-11-16 07:51:00
3:51 AM,57.9,57.0,97,30.23,7.0,NE,4.6,-,0.03,Rain,Light Rain,40,2013-11-16 08:51:00
3:58 AM,57.2,57.2,100,30.23,9.0,NE,5.8,-,0.01,Rain,Light Rain,50,2013-11-16 08:58:00
4:18 AM,59.0,57.2,94,30.22,10.0,NE,4.6,-,0.01,,Mostly Cloudy,50,2013-11-16 09:18:00
4:51 AM,59.0,57.9,96,30.22,9.0,NE,3.5,-,0.01,,Mostly Cloudy,50,2013-11-16 09:51:00
5:04 AM,59.0,57.2,94,30.22,7.0,NE,5.8,-,N/A,,Mostly Cloudy,40,2013-11-16 10:04:00
5:20 AM,60.8,59.0,94,30.22,6.0,ENE,6.9,-,N/A,,Overcast,60,2013-11-16 10:20:00
5:41 AM,60.8,59.0,94,30.23,9.0,East,6.9,-,N/A,,Overcast,80,2013-11-16 10:41:00
5:51 AM,60.1,59.0,96,30.23,10.0,East,6.9,-,N/A,,Overcast,80,2013-11-16 10:51:00
6:51 AM,61.0,61.0,100,30.24,10.0,ENE,4.6,-,0.00,,Overcast,70,2013-11-16 11:51:00
7:51 AM,62.1,62.1,100,30.25,10.0,Variable,4.6,-,0.01,,Mostly Cloudy,0,2013-11-16 12:51:00
8:41 AM,62.6,60.8,94,30.26,5.0,NNE,3.5,-,N/A,,Scattered Clouds,20,2013-11-16 13:41:00
8:51 AM,64.0,62.1,93,30.27,10.0,NE,4.6,-,N/A,,Scattered Clouds,40,2013-11-16 13:51:00
9:51 AM,68.0,63.0,84,30.27,10.0,NNE,3.5,-,N/A,,Clear,30,2013-11-16 14:51:00
10:51 AM,70.0,63.0,78,30.25,10.0,NNE,6.9,-,N/A,,Scattered Clouds,20,2013-11-16 15:51:00
10:58 AM,69.8,62.6,78,30.25,10.0,Variable,4.6,-,N/A,,Mostly Cloudy,0,2013-11-16 15:58:00
11:51 AM,73.0,64.0,73,30.23,10.0,ESE,8.1,-,N/A,,Mostly Cloudy,120,2013-11-16 16:51:00
11:58 AM,71.6,62.6,73,30.22,10.0,ESE,6.9,-,N/A,,Scattered Clouds,110,2013-11-16 16:58:00
12:41 PM,71.6,62.6,73,30.21,10.0,NE,5.8,-,N/A,,Mostly Cloudy,40,2013-11-16 17:41:00
12:51 PM,71.1,62.1,73,30.22,10.0,ENE,6.9,-,N/A,,Mostly Cloudy,70,2013-11-16 17:51:00
1:23 PM,71.6,62.6,73,30.20,10.0,East,8.1,-,N/A,,Scattered Clouds,90,2013-11-16 18:23:00
1:51 PM,72.0,62.1,71,30.19,10.0,East,9.2,-,N/A,,Partly Cloudy,90,2013-11-16 18:51:00
2:51 PM,72.0,63.0,73,30.19,10.0,ENE,4.6,-,N/A,,Clear,60,2013-11-16 19:51:00
3:51 PM,70.0,63.0,78,30.20,10.0,ENE,5.8,-,N/A,,Partly Cloudy,60,2013-11-16 20:51:00
4:05 PM,69.8,62.6,78,30.20,10.0,NE,5.8,-,N/A,,Mostly Cloudy,50,2013-11-16 21:05:00
4:30 PM,66.2,60.8,83,30.20,10.0,NE,5.8,-,N/A,,Scattered Clouds,50,2013-11-16 21:30:00
4:51 PM,64.9,60.1,84,30.20,10.0,NE,5.8,-,N/A,,Clear,50,2013-11-16 21:51:00
5:51 PM,60.1,57.9,93,30.21,10.0,NNE,6.9,-,N/A,,Partly Cloudy,30,2013-11-16 22:51:00
6:03 PM,60.8,57.2,88,30.22,10.0,NNE,6.9,-,N/A,,Mostly Cloudy,30,2013-11-16 23:03:00
6:27 PM,59.0,57.2,94,30.21,10.0,NNE,8.1,-,N/A,,Scattered Clouds,30,2013-11-16 23:27:00
6:51 PM,59.0,57.9,96,30.22,10.0,NNE,5.8,-,N/A,,Clear,30,2013-11-16 23:51:00
7:51 PM,59.0,57.9,96,30.22,10.0,NNE,6.9,-,N/A,,Clear,30,2013-11-17 00:51:00
8:51 PM,60.1,57.9,93,30.20,10.0,NE,6.9,-,N/A,,Clear,40,2013-11-17 01:51:00
9:51 PM,60.1,59.0,96,30.21,10.0,NE,4.6,-,N/A,,Partly Cloudy,40,2013-11-17 02:51:00
10:51 PM,61.0,60.1,97,30.19,10.0,NNE,5.8,-,N/A,,Overcast,30,2013-11-17 03:51:00
11:38 PM,60.8,60.8,100,30.21,10.0,Variable,3.5,-,0.00,,Overcast,0,2013-11-17 04:38:00
11:51 PM,62.1,61.0,96,30.20,10.0,NNE,4.6,-,0.00,,Overcast,30,2013-11-17 04:51:00